Location: Béaulencourt
(50.0796°N, 2.8795°E)
Time: 18:36:01
(UTC+00:00)

Cosmos 841 Rocket - Visible Passes

Search period start: 11 April 2026 00:00
Search period end: 21 April 2026 00:00
Orbit: 742 x 767 km, 74.0° (Epoch: 11 April)

Date Brightness Start Highest point End Pass type
(mag) Time Alt. Az. Time Alt. Az. Time Alt. Az.
12 Apr 6.2 04:06:09 10° SE 04:09:35 18° E 04:13:04 10° NE visible
15 Apr 5.8 03:43:51 10° SSE 03:47:48 23° E 03:51:47 10° NE visible
16 Apr 6.2 03:04:47 10° ESE 03:07:05 13° E 03:09:24 10° ENE visible
17 Apr 4.4 04:02:01 10° S 04:06:56 49° ESE 04:11:55 10° NNE visible
18 Apr 5.3 03:21:42 10° SSE 03:26:02 28° E 03:30:26 10° NE visible
19 Apr 6.0 02:42:05 10° SE 02:45:16 17° E 02:48:26 10° ENE visible
20 Apr 4.0 03:40:11 10° S 03:45:15 61° ESE 03:50:22 10° NNE visible
